Theta_e
296 297 298 300 302 304 308 311 311 305 310 320 325 331 334 335 329 333 332 317 310 309 309 311 315 318 319 320 322 324 326 327 327 327 327 328 329 330
294 295 296 298 300 302 303 306 310 310 306 315 322 329 331 331 329 332 331 317 308 306 306 306 309 313 315 316 317 318 320 321 322 323 324 325 327 328
291 293 294 296 297 299 302 303 304 308 309 315 321 326 328 327 328 332 331 331 328 306 305 305 305 307 308 309 311 313 314 315 317 319 320 322 324 325
287 289 291 292 296 298 299 300 302 305 308 310 317 320 325 329 330 326 330 331 332 311 305 304 304 304 304 305 305 306 308 309 310 312 314 315 318 321
285 285 287 288 292 295 297 300 301 305 306 307 310 319 323 326 327 329 329 331 332 317 304 303 303 303 302 302 303 304 304 304 304 306 307 308 310 313
285 285 285 285 289 290 293 296 299 301 303 304 308 313 320 324 325 324 324 328 329 330 315 309 305 302 301 301 302 302 302 303 304 304 304 303 303 306
283 284 284 285 288 288 289 288 292 297 300 302 306 312 315 318 320 324 323 325 328 329 326 318 315 312 308 301 304 302 301 302 303 304 304 302 302 304
280 281 282 282 283 285 286 286 285 286 292 295 298 298 296 296 299 306 316 320 319 311 313 316 314 314 313 311 303 301 299 300 301 302 303 302 301 301
279 279 280 281 281 282 283 283 283 285 284 285 284 283 283 284 286 295 306 310 309 306 314 306 300 301 299 297 296 299 299 300 300 301 300 300 300 299
278 278 277 278 280 280 281 281 281 282 283 284 283 283 284 285 285 290 295 298 302 291 289 292 289 288 289 291 292 293 294 296 295 296 297 297 298 298
277 277 277 277 279 280 278 278 279 280 284 285 285 285 285 286 285 286 283 291 293 286 284 285 285 286 286 285 287 291 291 291 291 292 293 294 293 294
276 276 277 277 278 278 276 276 276 278 280 281 282 284 283 284 285 284 282 280 284 286 285 283 286 286 286 285 285 286 286 288 290 290 291 292 293 294
275 275 276 277 277 277 277 276 276 278 279 280 281 281 282 282 282 284 284 282 279 279 283 283 285 285 285 285 284 284 285 285 287 288 289 289 290 291
275 275 276 277 277 277 276 276 277 277 277 277 278 278 279 280 281 284 284 285 284 283 284 284 284 282 284 285 284 284 283 284 285 285 285 286 286 286
278 276 276 276 276 276 276 276 275 275 275 274 274 276 278 280 282 282 284 285 285 285 285 284 283 284 283 281 281 280 282 282 283 283 284 283 283 284
278 277 276 276 275 275 275 275 275 275 274 274 274 277 279 278 279 280 280 282 281 282 285 285 284 284 283 282 282 280 281 279 282 282 282 282 283 283
278 278 276 275 274 274 274 274 274 274 274 274 274 274 275 276 277 278 278 279 279 279 279 281 284 284 283 282 282 283 282 282 282 282 282 281 281 281
275 274 274 274 274 273 273 273 273 272 273 274 274 273 274 275 275 276 276 276 276 277 278 279 280 281 283 282 282 279 283 283 283 284 284 281 280 281
273 272 272 272 272 272 272 272 272 272 272 273 272 272 273 274 274 274 274 274 274 275 277 278 278 276 275 275 281 281 279 282 283 283 283 282 280 280
271 271 270 270 270 270 270 270 271 272 272 272 272 272 271 272 272 272 273 272 273 273 274 275 276 275 275 276 277 280 280 279 281 282 280 281 281 281
269 269 270 269 269 269 270 270 270 271 271 271 271 271 271 271 271 271 271 270 272 272 271 272 274 277 279 281 280 279 279 280 279 278 279 281 280 281
268 268 268 268 267 267 268 269 269 269 269 269 269 270 271 271 270 270 270 270 270 271 271 272 274 276 277 276 275 278 279 280 279 279 279 278 277 277
266 266 267 266 266 266 266 266 266 266 266 267 267 268 269 269 270 270 270 270 270 269 269 270 272 274 274 276 276 276 277 278 278 278 277 278 279 281
Wind_Speed
12 12 12 11 10 10 14 13 11 11 15 14 12 14 11 10 12 13 15 18 21 21 20 21 21 22 22 21 21 21 22 22 22 23 24 25 27 28
10 13 13 11 12 11 11 13 14 13 15 12 13 14 12 12 13 13 14 10 18 19 20 18 19 21 22 22 21 21 20 19 20 21 22 24 25 27
13 14 15 15 11 10 10 10 11 13 16 12 13 14 17 15 6 9 12 13 12 19 19 21 22 24 21 20 21 21 20 20 21 22 22 22 24 27
15 15 13 13 17 14 11 14 12 11 13 19 14 12 16 14 11 11 9 10 11 16 21 22 23 23 23 21 20 20 21 21 21 20 21 20 23 28
14 15 15 16 13 12 12 10 10 9 11 13 15 13 13 10 12 12 8 9 9 10 20 20 19 19 18 18 20 21 22 20 19 21 18 18 20 23
15 16 15 15 14 11 10 12 12 11 11 12 12 13 13 11 9 10 10 9 9 8 7 8 10 14 15 16 19 18 19 20 22 19 17 17 14 13
18 17 15 21 21 16 9 10 10 9 9 8 9 12 11 11 11 8 11 9 9 8 6 5 4 5 6 12 14 21 20 20 21 19 18 17 17 17
18 18 16 22 20 20 19 19 17 9 5 7 6 8 8 8 11 10 8 10 10 1 3 4 6 7 6 6 12 12 18 19 20 19 19 19 19 18
17 18 16 15 22 15 15 17 17 23 19 11 10 9 8 12 10 12 8 6 4 6 5 7 1 4 2 2 3 4 10 15 17 18 19 19 19 19
17 18 18 19 23 19 14 13 14 13 16 11 11 10 9 11 10 9 11 7 1 4 7 1 5 2 3 3 6 5 5 4 2 4 7 12 17 19
14 17 18 20 32 32 18 17 16 16 14 20 18 19 22 25 23 10 9 7 1 4 10 4 1 3 2 3 3 10 12 10 9 7 4 7 7 9
13 15 29 25 33 33 19 17 17 17 15 15 14 16 19 19 24 15 10 8 6 4 9 8 3 3 4 2 2 3 4 9 10 11 10 7 7 5
11 13 13 29 30 31 28 19 19 15 17 13 12 13 14 14 13 11 11 9 10 4 9 4 3 3 2 4 2 2 4 4 2 4 7 10 10 3
12 11 13 28 28 30 22 30 28 16 12 12 13 13 13 12 12 12 13 7 7 8 9 11 4 5 3 2 3 2 4 4 3 3 2 3 5 9
10 18 23 24 26 19 31 31 21 14 14 14 13 13 12 12 13 13 11 8 9 8 10 10 8 6 6 3 3 4 4 4 5 4 4 5 4 4
12 11 13 14 16 15 15 16 13 13 12 12 11 11 10 12 11 12 11 11 9 9 10 9 8 8 6 5 4 4 5 4 4 5 5 3 5 5
10 9 10 11 11 12 12 13 13 13 13 12 12 12 12 12 12 12 12 11 10 10 11 12 11 6 8 10 6 7 4 3 4 4 4 5 5 6
11 10 11 12 12 13 13 12 12 15 13 13 12 13 13 12 12 11 11 12 12 11 11 10 11 10 3 8 14 8 6 6 5 3 2 3 3 5
11 12 11 12 12 13 12 12 13 13 16 12 12 13 13 12 14 12 12 12 12 11 11 11 10 10 10 8 3 19 9 6 6 5 6 5 5 7
11 12 12 12 13 13 13 13 12 11 12 12 12 12 13 12 13 13 12 14 13 12 11 11 11 11 10 8 7 4 17 8 7 4 3 4 5 7
11 12 11 12 12 12 11 11 13 12 12 12 12 12 12 12 13 12 13 16 15 12 12 12 13 20 10 8 6 3 6 14 11 8 7 2 2 1
10 11 11 11 11 12 11 11 11 11 12 11 11 11 12 11 12 13 12 13 13 12 13 12 14 12 11 10 8 9 4 4 6 13 15 10 5 4
10 10 10 10 11 11 11 11 11 11 11 12 11 11 12 11 11 11 11 12 12 13 14 13 12 12 12 11 9 6 4 4 4 4 6 11 9 4
Wind_Direction
288 282 274 273 270 268 273 276 272 272 267 260 261 253 255 222 221 228 235 207 194 198 201 205 208 211 209 202 200 200 202 206 209 211 215 220 224 227
288 281 275 274 270 263 259 264 271 273 270 264 264 270 264 232 216 217 229 212 196 199 204 205 209 214 214 203 199 199 200 202 209 214 217 221 226 227
310 292 283 279 275 268 264 260 256 268 271 274 256 265 271 278 302 244 208 214 216 202 205 206 209 212 211 207 203 202 202 206 210 215 218 223 229 234
326 317 300 311 279 261 249 260 259 257 271 277 279 274 262 266 263 219 252 206 217 192 200 204 210 210 210 206 206 206 204 207 212 214 218 225 235 243
341 333 326 326 281 265 276 271 263 268 253 265 274 279 270 260 272 275 254 251 241 205 198 205 203 206 208 205 209 208 210 209 210 215 220 228 237 241
360 353 342 337 310 334 299 281 266 271 249 256 266 272 274 259 256 260 255 249 239 238 175 184 199 214 209 207 211 212 211 212 214 208 205 205 193 177
8 4 356 356 1 13 13 353 317 291 269 299 274 262 283 263 252 251 254 252 238 228 209 200 183 202 213 220 227 213 209 214 214 204 196 200 195 190
9 8 6 8 4 2 16 26 27 4 300 293 302 332 339 345 341 339 307 247 239 171 209 229 213 216 208 203 212 213 216 208 211 204 199 199 202 201
9 10 9 10 11 3 10 17 23 34 42 37 47 29 359 345 319 307 314 293 340 5 259 243 158 225 62 66 39 223 224 212 210 208 200 203 203 203
15 17 13 11 17 12 11 17 21 22 29 34 39 27 13 358 338 287 286 308 240 63 5 328 342 4 33 46 48 44 18 311 277 245 234 221 214 210
17 14 21 17 18 20 17 18 19 19 17 28 29 26 24 21 23 18 8 323 12 31 23 332 59 324 8 32 22 71 71 54 44 30 306 252 239 242
12 18 19 24 24 23 21 16 19 8 8 10 18 21 19 17 21 28 13 7 343 23 22 335 352 55 304 54 53 25 41 55 52 44 27 5 317 231
13 11 15 21 25 29 26 23 19 5 11 13 17 16 19 16 12 15 22 21 30 10 338 339 333 339 50 311 72 28 39 19 21 45 43 35 17 334
20 12 12 19 24 26 29 24 22 19 20 17 15 17 15 12 12 9 8 13 28 16 357 11 352 5 324 291 4 359 52 22 21 42 17 18 22 25
22 21 20 23 23 21 25 21 19 20 18 19 14 8 9 359 6 6 10 24 12 16 12 17 11 347 20 32 5 349 3 40 10 15 21 21 18 357
19 25 18 21 31 23 23 25 19 18 18 15 10 1 5 6 12 8 0 4 11 11 21 26 17 19 14 42 33 22 21 27 4 13 26 3 21 30
13 18 19 20 22 23 26 26 21 14 16 13 11 6 5 11 7 7 7 357 10 3 10 9 11 58 53 29 17 24 19 32 38 10 41 43 27 30
24 23 18 13 15 18 15 19 23 15 13 12 10 9 1 6 3 4 10 8 358 359 2 5 8 1 10 76 53 6 9 17 10 5 34 79 62 46
27 22 19 14 12 14 12 10 11 15 8 8 11 8 359 3 2 3 11 3 355 358 356 0 8 5 356 1 3 44 359 356 345 17 32 35 55 43
19 21 16 12 9 8 8 5 1 5 8 3 8 6 2 0 1 2 5 358 349 354 353 358 355 354 336 336 321 65 35 4 344 16 58 67 82 100
13 13 13 11 7 3 0 0 357 360 2 358 2 1 359 357 360 360 359 355 349 354 351 351 339 329 320 324 326 28 55 46 37 17 349 346 37 83
10 8 7 9 6 1 358 354 354 355 359 357 355 354 350 356 356 357 357 354 351 349 349 343 332 331 331 328 349 339 23 28 84 65 45 27 349 353
9 3 359 5 5 359 356 352 353 355 356 350 347 347 341 350 353 352 355 351 351 347 352 339 339 333 331 324 333 324 332 320 348 25 52 18 5 61